STARLINK-32483, 61856

Orbit data source: Space-Track

STARLINK-32483, 61856 is a payload satellite owned by SpaceX/Seattle (US) in LEO that was launched on Thu, 07 Nov 2024 UTC via an FALCON 9 launch vehicle from the Air Force Eastern Test Range (AFETR). Payload-class satellites include a variety of spacecraft equipped with specific instruments for various scientific and technological missions. These include communications satellites like Starlink; space stations such as the ISS; scientific satellites like the Hubble; Earth observation satellites from companies like Planet Labs, Umbra, and HawkEye 360; GPS; miniature CubeSats for education and research; and military/defense satellites.

Loading next visibility...
Identifier
61856, 2024-202M
Orbit
LEO
Country
Flag of USUS
Related business
Manufacturer
SpaceX/Seattle
Mission
Operational Commercial Communications
Bus & Motor
STARLINK V2M, Unknown motor
Mass
730 kg wet, ~700 kg dry
Launch date (UTC)
2024-11-07 (2 years ago)
Launch vehicle
FALCON 9
Launch site
Air Force Eastern Test Range (AFETR)
Object type
Payload
Rocket body
Debris
Shape & HBR
Box + 2 Pan, 17.7 m
Radar Cross Section
33.884 m², Large (>1 m²)

Expand to show TLE details & history
Last TLE update: 15 hours ago

TLE from 15 hours ago
0 STARLINK-32483
1 61856U 24202M   26266.51364194 -.00000457  00000-0 -71050-5 0  9997
2 61856  43.0032 200.6593 0000815 281.2230  78.8530 15.27572809105594
Epoch: 2026-09-23T12:19Z
TLE epoch observation values (Epoch: 2026-09-23T12:19:38.663Z)
Latitude
-0.00003°
Longitude
13.38449°
Altitude
482.738 km
Speed
7.626 km/s
True Right ascension
13h 22m 38s
True Declination
0° 00' 00"
Sunlit
Object was in daylight at epoch
Visualization orbit readout
Latitude
Unknown
Longitude
Unknown
Altitude
Unknown
Speed
Unknown
Apparent Right ascension
Unknown
Apparent Declination
Unknown
Sunlit
N/A
Visualization observer readout
Local Sidereal Time
20:47:26
Azimuth
Unknown
Elevation
Unknown
Doppler factor
Unknown
Orbital elements
Apogee altitude
485.575 km
Perigee altitude
484.456 km
Semi-major axis
6,863.152 km
Eccentricity
0.00008
Inclination
43.0032°
RAAN
200.6593°
Arg. of periapsis
281.223°
True anomaly
78.86216°
Mean anomaly
78.853°
Eccentric anomaly
78.85758°
Mean motion
3.81731 °/min
Orbital period
94.31 mins
BSTAR
-0.000007105
Loading maneuver chart data...
Computing Atmospheric mass density...
Loading historical data...
Loading historical data...
Loading historical data...
Loading historical data...
Loading historical data...
Loading historical data...
Loading historical data...

Documentation

Showing up to 5 results
|